This demonstration page uses our WeatherBlox Daily Observations layout. Learn more.

Left ArrowRight Arrow

44.8408, -93.29828

Hourly Observations for November 8, 2016

Temp ( °F °C ) Dew Point ( °F °C ) Humidity (%) Winds ( mph kmh ) Pressure ( in mb ) Visibility ( mi km ) Precip ( " mm )
12:53 am 00:53 Clear 49 9.4 39 3.9 69 69 NNW 12 19 30.23 1024 10 16 0.00 0.00
1:53 am 01:53 Clear 48 8.9 39 3.9 71 71 NNW 14 22 30.25 1024 10 16 0.00 0.00
2:53 am 02:53 Clear 47 8.3 38 3.3 71 71 NNW 12 19 30.27 1025 10 16 0.00 0.00
3:53 am 03:53 Clear 46 7.8 38 3.3 73 73 NNW 13 20 30.28 1025 10 16 0.00 0.00
4:53 am 04:53 Clear 45 7.2 38 3.3 77 77 NNW 13 20 30.30 1026 10 16 0.00 0.00
5:53 am 05:53 Clear 45 7.2 38 3.3 77 77 NNW 13 20 30.32 1027 9 14 0.00 0.00
6:53 am 06:53 Clear 44 6.7 37 2.8 76 76 NNW 12 19 30.34 1028 10 16 0.00 0.00
7:53 am 07:53 Sunny 45 7.2 38 3.3 77 77 NNW 12 19 30.38 1029 10 16 0.00 0.00
8:53 am 08:53 Sunny 48 8.9 38 3.3 68 68 N 13 20 30.40 1029 10 16 0.00 0.00
9:53 am 09:53 Sunny 51 10.6 38 3.3 61 61 NNW 15 24 30.40 1030 10 16 0.00 0.00
10:53 am 10:53 Sunny 54 12.2 38 3.3 55 55 N 12 19 30.40 1030 10 16 0.00 0.00
11:53 am 11:53 Mostly Sunny 55 12.8 37 2.8 51 51 NNW 12 19 30.39 1029 10 16 0.00 0.00
12:53 pm 12:53 Mostly Sunny 57 13.9 36 2.2 45 45 NNW 13 20 30.39 1029 10 16 0.00 0.00
1:53 pm 13:53 Mostly Sunny 58 14.4 34 1.1 41 41 N 14 22 30.38 1029 10 16 0.00 0.00
2:53 pm 14:53 Mostly Sunny 58 14.4 32 0 38 38 N 13 20 30.38 1029 10 16 0.00 0.00
3:53 pm 15:53 Sunny 57 13.9 31 -0.6 37 37 NNW 9 15 30.39 1029 10 16 0.00 0.00
4:53 pm 16:53 Clear 54 12.2 31 -0.6 42 42 NW 7 11 30.40 1029 10 16 0.00 0.00
5:53 pm 17:53 Clear 52 11.1 30 -1.1 43 43 NNW 6 9 30.42 1030 10 16 0.00 0.00
6:53 pm 18:53 Clear 49 9.4 31 -0.6 50 50 NW 5 7 30.42 1030 10 16 0.00 0.00
7:53 pm 19:53 Clear 49 9.4 30 -1.1 48 48 VRB 5 7 30.42 1030 10 16 0.00 0.00
8:53 pm 20:53 Clear 45 7.2 32 0 61 61 WNW 6 9 30.42 1030 10 16 0.00 0.00
9:53 pm 21:53 Partly Cloudy 47 8.3 31 -0.6 54 54 Calm 30.41 1030 10 16 0.00 0.00
10:53 pm 22:53 Partly Cloudy 44 6.7 32 0 63 63 Calm 30.41 1030 10 16 0.00 0.00
11:53 pm 23:53 Mostly Clear 40 4.4 33 0.6 77 77 Calm 30.41 1030 10 16 0.00 0.00

Powered by AerisWeather